SCP
-0 0 0 0 0 0 0 0 0 0 0 0 0 0 0 -0 -0 -0 -0 -0 -0 -0 -0 -1 -1 -1 -1 -0 -1 -1 -0 -0 -0 -0 -0 -0 -0 -0 -0 -0 -0 0 0
-0 -0 0 0 0 0 0 0 0 0 0 0 0 0 0 0 0 0 0 0 -0 -0 -0 -1 -1 -1 -1 -1 -1 -1 -1 -0 -0 -0 -0 -0 -0 0 0 0 -0 0 0
0 0 0 0 0 0 0 0 0 0 0 0 0 0 0 0 0 0 0 0 -0 0 0 -0 -0 -0 -0 -1 -1 -1 -0 -0 -0 -0 -0 -0 -0 0 -0 0 -0 0 0
0 0 0 0 -0 -0 0 0 0 0 0 0 0 0 0 0 0 0 0 0 0 -0 0 0 -0 -0 -0 -0 -0 -0 -0 -0 -0 -0 -0 -0 0 0 0 -0 0 0 0
0 0 0 0 0 -0 -0 0 0 0 0 0 0 0 0 0 0 0 0 0 0 0 0 0 -0 -0 -0 -0 -0 -0 -0 -0 -0 -0 -0 -0 -0 -0 0 0 0 -0 0
0 0 0 0 0 -0 0 0 0 0 0 0 0 0 0 0 0 0 0 0 0 0 0 -0 0 0 0 0 -0 -0 -0 -0 -0 -0 -0 -0 -0 -0 -0 0 0 -0 -0
0 0 0 0 0 0 0 0 0 0 0 0 0 0 0 0 0 0 0 0 0 0 -0 -0 -0 -0 -0 0 -0 0 0 -0 -0 -0 -0 -0 -0 -0 -0 -0 -0 -0 -0
0 0 0 0 0 0 0 0 0 0 0 0 0 0 0 0 0 0 0 0 0 0 0 -0 0 -0 0 0 0 -0 0 0 -0 -0 -0 -0 -0 0 -0 -0 -0 -0 -0
0 0 0 0 0 0 0 0 0 0 0 0 0 0 0 0 0 0 0 0 0 0 0 0 0 -0 0 0 0 -0 -0 -0 -0 -0 -0 -0 0 0 0 0 -0 0 -0
0 0 0 0 0 0 0 0 0 1 1 0 0 0 0 0 0 0 0 0 0 0 0 0 0 0 0 0 0 -0 -0 -0 -0 -0 -0 0 0 0 0 0 0 0 0
0 0 0 0 1 1 1 1 1 1 1 1 1 0 0 0 0 0 0 0 0 0 0 0 0 0 0 0 0 0 -0 0 -0 -0 0 0 0 0 0 0 0 0 0
0 0 0 0 1 1 1 1 1 1 1 1 1 1 1 1 0 0 0 0 0 0 0 0 0 0 0 0 0 0 0 0 0 0 0 0 0 0 0 0 0 0 0
0 0 0 0 1 1 1 2 2 1 2 2 1 1 1 1 1 1 1 0 0 0 0 0 0 0 0 0 0 0 0 0 0 0 0 0 0 0 0 0 0 0 0
1 1 1 1 1 1 1 2 3 3 2 2 2 1 1 1 1 1 1 1 0 0 0 0 0 0 0 0 0 1 1 0 0 0 0 0 0 0 0 0 0 0 0
2 1 1 1 1 1 1 2 3 3 3 2 2 2 2 2 1 1 1 1 1 1 0 0 0 0 0 0 0 0 0 0 0 0 0 0 0 0 0 0 0 0 0
1 0 0 0 1 1 2 2 3 3 4 3 3 2 2 2 2 1 1 1 1 1 1 0 0 0 0 0 0 0 0 0 0 0 0 0 0 0 0 0 0 0 0
0 0 1 1 1 1 2 3 3 3 3 2 3 3 2 2 1 2 1 1 1 1 1 1 0 0 0 0 0 0 0 0 0 0 0 0 0 0 0 0 0 0 0
1 1 1 2 2 2 3 3 3 4 3 3 3 3 2 2 2 1 1 0 0 0 1 0 0 0 0 0 0 0 0 0 0 0 0 0 0 0 0 0 0 0 0
1 1 2 2 2 3 3 4 3 3 3 3 2 3 2 2 1 0 0 0 1 1 0 1 0 0 0 0 0 0 0 0 0 0 0 0 0 0 0 0 0 0 0
1 1 1 2 2 3 3 4 4 3 3 3 2 2 2 1 1 0 0 0 0 0 0 0 0 0 0 0 0 0 0 0 0 0 0 0 0 0 0 0 0 0 0
1 1 2 2 2 4 5 4 3 3 3 3 2 2 1 1 0 0 0 0 0 0 0 0 0 0 0 0 0 0 0 0 0 0 0 0 0 0 0 0 0 0 0
0 0 1 2 3 3 2 2 2 3 3 3 2 1 1 1 0 0 0 0 0 0 0 0 0 0 0 0 0 0 0 0 0 0 0 0 0 0 0 0 0 0 0
0 0 0 1 2 2 2 1 1 2 2 2 2 1 1 0 0 0 0 0 0 0 0 0 0 0 0 0 0 0 0 0 0 0 0 0 0 0 0 0 0 0 0
0 0 0 0 0 1 1 1 1 2 2 1 2 1 0 0 0 0 0 0 0 0 0 0 0 0 0 0 0 0 0 0 0 0 0 0 0 0 0 0 0 0 0
0 0 0 0 0 0 0 1 1 1 1 1 1 1 0 0 0 0 0 0 0 0 0 0 0 0 0 0 0 0 0 0 0 0 0 0 0 0 0 0 0 0 0
0 0 0 0 0 0 0 0 0 1 1 1 1 0 0 0 0 0 0 0 0 0 0 0 0 0 0 0 0 0 0 0 0 0 0 0 0 0 0 0 0 0 0
Wind_Speed_500mb
9 16 12 7 12 16 23 23 21 24 29 23 15 27 23 20 33 40 40 28 34 39 49 42 42 36 31 32 30 27 26 27 28 30 31 31 31 31 30 30 31 32 32
6 14 17 13 15 15 18 24 27 25 26 29 26 24 18 23 21 32 32 18 22 27 32 40 43 40 35 30 32 29 27 27 28 31 32 33 32 30 31 31 31 31 33
13 10 25 21 21 24 19 14 16 21 25 28 28 26 25 23 20 14 10 18 30 36 39 44 37 40 39 34 29 29 29 25 27 31 33 33 34 32 29 28 31 32 33
17 19 16 27 28 27 26 22 24 27 28 34 33 30 25 20 19 23 27 19 18 29 38 53 58 47 46 40 31 25 27 25 24 28 32 33 33 34 33 30 31 32 33
22 24 20 20 27 30 23 26 29 29 30 36 35 25 25 25 20 23 26 30 32 20 32 42 39 36 41 44 34 25 20 24 21 24 28 32 33 34 34 34 34 34 35
31 27 21 15 24 33 24 19 23 28 31 29 30 30 28 25 17 20 26 20 36 28 17 20 36 37 28 31 35 28 21 20 19 20 24 27 30 33 34 34 34 34 35
25 27 27 24 17 29 26 24 22 33 26 30 32 32 30 21 15 9 19 14 24 40 35 19 28 28 25 24 32 30 28 22 18 19 20 24 27 29 32 33 33 34 34
35 30 33 32 31 25 30 31 28 29 30 30 28 32 29 28 6 22 14 18 14 19 19 25 28 28 24 22 23 29 32 30 22 20 20 20 24 28 29 30 31 34 34
40 39 34 27 25 31 33 35 40 39 41 40 33 26 14 8 30 17 16 11 8 20 27 24 26 28 28 24 22 21 27 27 24 25 22 21 21 25 27 27 28 30 29
33 35 38 39 38 37 36 38 41 47 46 49 38 34 34 33 28 20 23 21 15 11 19 27 25 22 27 30 23 30 29 29 27 27 25 23 21 23 25 24 26 26 27
41 40 42 45 48 50 48 42 42 50 53 53 50 42 39 39 36 34 40 27 22 18 19 21 24 26 29 30 34 36 34 36 33 34 26 25 23 22 25 25 25 25 25
45 45 44 43 46 55 59 52 50 44 52 56 57 57 52 51 45 38 39 40 36 28 21 22 32 41 38 36 40 41 34 37 37 38 32 27 25 25 26 26 27 26 24
45 50 50 52 50 47 47 47 56 60 53 53 54 57 56 56 52 51 50 50 51 47 43 33 32 33 39 40 43 47 47 43 47 43 40 36 34 31 28 29 29 28 25
55 55 60 63 65 62 59 52 46 57 65 60 54 55 56 52 49 54 51 44 47 50 48 44 42 46 43 44 48 51 57 56 52 57 52 51 45 39 34 33 32 30 27
66 69 72 70 65 69 60 55 57 56 56 67 60 57 57 54 50 47 48 48 46 55 61 55 55 54 57 58 53 56 63 60 55 51 59 59 54 42 38 37 35 33 31
56 53 49 59 60 61 59 58 57 58 54 60 66 61 57 57 50 46 45 49 46 49 61 63 64 66 60 61 55 59 65 58 52 51 55 59 59 52 45 41 39 37 36
50 49 49 49 52 54 62 70 72 59 59 61 68 67 63 53 51 49 43 47 49 52 62 71 69 62 61 56 53 54 58 58 57 60 63 64 59 56 52 46 44 45 41
44 49 55 57 57 56 55 58 65 69 64 70 71 68 65 58 60 49 50 55 53 59 58 66 65 52 48 48 48 48 50 52 57 61 75 65 50 47 48 48 51 48 43
54 54 55 59 61 62 61 62 62 66 73 75 66 73 67 61 65 56 52 57 59 60 57 51 45 42 42 44 47 49 43 37 33 29 35 44 48 44 48 59 56 51 50
60 63 65 68 63 65 68 64 66 68 71 67 66 69 68 71 65 58 52 53 57 49 33 26 21 25 21 32 56 46 44 37 32 30 29 29 32 47 53 55 53 50 42
65 68 72 72 69 68 65 65 66 68 71 70 65 70 69 64 64 54 48 50 40 31 27 19 23 27 27 12 33 40 30 24 21 24 24 20 18 20 21 24 25 26 29
68 70 73 71 69 66 66 70 65 69 67 69 64 66 63 57 49 38 40 35 28 25 15 18 19 13 22 24 30 25 27 28 25 21 21 18 16 15 13 16 20 21 22
71 73 74 73 73 68 61 58 68 67 64 65 65 60 55 48 41 37 30 28 28 21 16 16 16 16 18 20 21 25 22 21 18 17 18 16 15 16 17 19 22 26 27
64 68 70 69 76 74 63 60 61 62 57 62 60 47 50 47 35 32 28 24 22 25 24 20 19 16 17 18 20 18 21 22 20 24 25 23 23 22 17 17 14 17 17
62 63 62 61 67 64 63 60 51 56 61 56 55 52 43 43 37 34 25 20 20 22 22 20 20 21 21 21 21 22 23 25 26 23 22 23 24 23 18 18 18 18 20
56 56 57 51 51 58 57 49 49 49 55 56 53 52 48 44 39 37 27 25 23 28 25 21 24 25 24 24 20 19 24 25 23 19 23 19 22 23 20 20 15 14 13
Wind_Direction_500mb
211 208 210 240 260 290 298 302 298 318 327 321 301 328 325 288 266 265 270 256 274 276 264 256 263 253 257 264 263 261 258 252 248 245 241 234 228 225 229 230 236 236 237
151 177 211 241 258 261 289 293 293 294 313 311 313 321 311 317 293 268 289 275 263 267 266 251 258 255 249 253 263 260 261 256 250 246 246 242 238 233 227 232 236 238 237
258 263 240 224 240 252 291 285 299 288 320 323 334 328 327 330 291 313 293 325 267 279 254 246 265 263 257 244 247 260 261 258 251 245 243 245 243 240 237 236 239 240 241
261 265 289 246 237 244 258 290 297 286 308 324 319 311 319 319 288 307 299 256 298 278 261 246 260 264 262 255 241 244 261 258 255 246 243 244 244 244 243 240 243 245 245
258 264 283 280 249 230 242 281 292 290 296 309 316 314 323 312 295 297 295 253 289 307 224 229 244 252 246 246 243 240 249 256 257 249 244 244 243 243 244 244 245 245 247
253 263 269 288 239 227 240 253 273 287 295 304 312 311 307 311 317 295 287 239 275 245 326 248 242 247 247 235 237 237 241 252 253 256 244 242 242 242 241 242 247 248 248
242 254 263 276 259 242 247 251 267 283 281 293 304 315 306 312 324 331 320 284 279 260 248 233 224 234 237 238 238 242 241 245 245 250 252 246 243 241 239 238 242 246 246
245 246 259 279 277 266 248 250 265 275 264 287 292 304 308 311 323 336 316 302 293 290 280 272 248 243 253 256 248 252 242 243 242 242 244 248 243 240 235 236 240 244 243
239 250 261 273 279 275 264 256 258 267 272 276 282 279 286 276 311 320 318 346 282 285 287 279 268 257 261 265 250 246 232 233 240 243 239 242 246 239 237 234 234 239 237
240 252 264 271 274 272 273 274 262 260 265 270 274 263 263 274 290 302 300 307 307 311 299 262 266 258 253 254 253 250 242 236 243 243 243 244 244 240 234 234 234 232 236
246 253 263 270 273 273 273 275 272 262 262 266 263 261 261 259 276 268 289 289 292 301 281 277 271 279 266 261 257 250 241 239 242 238 245 240 242 243 233 230 233 231 230
252 253 260 267 271 274 271 271 271 270 263 262 262 260 255 258 269 266 276 283 293 300 282 271 286 274 267 266 259 255 247 239 242 237 237 235 239 239 235 227 227 227 227
252 258 265 269 270 276 284 285 279 269 266 263 260 260 261 263 265 267 271 272 275 281 287 281 281 278 271 265 252 256 254 259 244 236 234 231 234 232 234 229 225 225 226
257 263 268 271 273 275 278 279 280 275 266 263 262 261 261 259 256 263 265 264 272 276 276 279 282 282 279 269 260 260 261 261 247 238 232 229 230 231 228 228 225 224 226
267 273 276 276 280 275 278 281 278 278 268 261 261 261 260 258 254 259 260 261 264 272 275 279 281 281 278 275 270 263 265 263 249 239 237 235 223 229 230 228 225 222 221
272 274 281 272 280 270 273 276 279 276 270 261 259 260 260 260 261 256 258 258 263 271 275 280 283 284 276 271 265 267 257 246 246 239 237 228 223 229 227 227 227 225 225
284 277 279 283 286 278 274 276 273 274 270 263 258 259 258 259 263 263 260 262 270 273 277 286 286 284 274 268 261 257 251 249 252 241 233 228 221 223 222 223 223 228 227
281 281 284 286 283 283 284 280 272 268 271 263 259 255 258 258 261 261 260 266 270 280 291 293 292 286 279 267 259 254 250 235 252 248 233 237 218 222 221 225 232 228 230
281 284 285 285 286 286 278 277 276 273 269 267 263 252 256 256 261 256 262 269 278 287 287 281 284 286 278 263 247 238 235 227 231 220 206 216 223 226 226 228 238 232 230
278 277 277 277 278 280 282 279 274 270 268 265 258 252 253 257 258 258 266 272 279 287 283 281 299 283 271 290 235 218 222 223 230 216 213 225 223 223 222 224 228 232 223
277 278 279 278 278 272 274 277 275 271 266 261 256 252 253 253 254 255 263 274 276 283 276 276 260 259 244 172 180 204 213 198 187 204 202 192 195 187 189 200 204 207 213
280 281 280 280 279 278 271 264 269 271 266 259 255 254 251 251 254 256 264 261 266 274 279 266 244 198 196 196 190 191 190 179 169 180 183 185 198 200 209 206 212 212 212
287 283 278 276 271 273 275 270 265 267 262 257 251 252 246 242 243 253 245 246 254 245 209 198 220 220 208 194 196 183 186 191 178 181 181 175 183 195 204 215 218 228 240
300 296 290 278 273 268 269 271 263 266 265 254 248 245 242 234 229 231 232 239 239 222 222 221 220 208 208 210 197 192 177 185 185 178 186 186 197 206 203 213 231 247 253
306 305 301 292 271 277 263 271 265 263 258 253 248 238 231 228 217 218 215 211 191 198 207 202 194 191 197 195 198 199 194 189 180 176 176 168 155 147 161 172 189 213 226
311 306 305 294 284 283 268 272 265 262 256 252 244 237 231 221 215 212 211 195 184 190 186 168 177 183 188 188 187 189 189 184 181 167 176 167 161 161 153 164 189 216 235
Wind_Speed_850mb
9 16 12 7 12 16 23 23 21 24 29 23 15 27 23 20 33 40 40 28 34 39 49 42 42 36 31 32 30 27 26 27 28 30 31 31 31 31 30 30 31 32 32
6 14 17 13 15 15 18 24 27 25 26 29 26 24 18 23 21 32 32 18 22 27 32 40 43 40 35 30 32 29 27 27 28 31 32 33 32 30 31 31 31 31 33
13 10 25 21 21 24 19 14 16 21 25 28 28 26 25 23 20 14 10 18 30 36 39 44 37 40 39 34 29 29 29 25 27 31 33 33 34 32 29 28 31 32 33
17 19 16 27 28 27 26 22 24 27 28 34 33 30 25 20 19 23 27 19 18 29 38 53 58 47 46 40 31 25 27 25 24 28 32 33 33 34 33 30 31 32 33
22 24 20 20 27 30 23 26 29 29 30 36 35 25 25 25 20 23 26 30 32 20 32 42 39 36 41 44 34 25 20 24 21 24 28 32 33 34 34 34 34 34 35
31 27 21 15 24 33 24 19 23 28 31 29 30 30 28 25 17 20 26 20 36 28 17 20 36 37 28 31 35 28 21 20 19 20 24 27 30 33 34 34 34 34 35
25 27 27 24 17 29 26 24 22 33 26 30 32 32 30 21 15 9 19 14 24 40 35 19 28 28 25 24 32 30 28 22 18 19 20 24 27 29 32 33 33 34 34
35 30 33 32 31 25 30 31 28 29 30 30 28 32 29 28 6 22 14 18 14 19 19 25 28 28 24 22 23 29 32 30 22 20 20 20 24 28 29 30 31 34 34
40 39 34 27 25 31 33 35 40 39 41 40 33 26 14 8 30 17 16 11 8 20 27 24 26 28 28 24 22 21 27 27 24 25 22 21 21 25 27 27 28 30 29
33 35 38 39 38 37 36 38 41 47 46 49 38 34 34 33 28 20 23 21 15 11 19 27 25 22 27 30 23 30 29 29 27 27 25 23 21 23 25 24 26 26 27
41 40 42 45 48 50 48 42 42 50 53 53 50 42 39 39 36 34 40 27 22 18 19 21 24 26 29 30 34 36 34 36 33 34 26 25 23 22 25 25 25 25 25
45 45 44 43 46 55 59 52 50 44 52 56 57 57 52 51 45 38 39 40 36 28 21 22 32 41 38 36 40 41 34 37 37 38 32 27 25 25 26 26 27 26 24
45 50 50 52 50 47 47 47 56 60 53 53 54 57 56 56 52 51 50 50 51 47 43 33 32 33 39 40 43 47 47 43 47 43 40 36 34 31 28 29 29 28 25
55 55 60 63 65 62 59 52 46 57 65 60 54 55 56 52 49 54 51 44 47 50 48 44 42 46 43 44 48 51 57 56 52 57 52 51 45 39 34 33 32 30 27
66 69 72 70 65 69 60 55 57 56 56 67 60 57 57 54 50 47 48 48 46 55 61 55 55 54 57 58 53 56 63 60 55 51 59 59 54 42 38 37 35 33 31
56 53 49 59 60 61 59 58 57 58 54 60 66 61 57 57 50 46 45 49 46 49 61 63 64 66 60 61 55 59 65 58 52 51 55 59 59 52 45 41 39 37 36
50 49 49 49 52 54 62 70 72 59 59 61 68 67 63 53 51 49 43 47 49 52 62 71 69 62 61 56 53 54 58 58 57 60 63 64 59 56 52 46 44 45 41
44 49 55 57 57 56 55 58 65 69 64 70 71 68 65 58 60 49 50 55 53 59 58 66 65 52 48 48 48 48 50 52 57 61 75 65 50 47 48 48 51 48 43
54 54 55 59 61 62 61 62 62 66 73 75 66 73 67 61 65 56 52 57 59 60 57 51 45 42 42 44 47 49 43 37 33 29 35 44 48 44 48 59 56 51 50
60 63 65 68 63 65 68 64 66 68 71 67 66 69 68 71 65 58 52 53 57 49 33 26 21 25 21 32 56 46 44 37 32 30 29 29 32 47 53 55 53 50 42
65 68 72 72 69 68 65 65 66 68 71 70 65 70 69 64 64 54 48 50 40 31 27 19 23 27 27 12 33 40 30 24 21 24 24 20 18 20 21 24 25 26 29
68 70 73 71 69 66 66 70 65 69 67 69 64 66 63 57 49 38 40 35 28 25 15 18 19 13 22 24 30 25 27 28 25 21 21 18 16 15 13 16 20 21 22
71 73 74 73 73 68 61 58 68 67 64 65 65 60 55 48 41 37 30 28 28 21 16 16 16 16 18 20 21 25 22 21 18 17 18 16 15 16 17 19 22 26 27
64 68 70 69 76 74 63 60 61 62 57 62 60 47 50 47 35 32 28 24 22 25 24 20 19 16 17 18 20 18 21 22 20 24 25 23 23 22 17 17 14 17 17
62 63 62 61 67 64 63 60 51 56 61 56 55 52 43 43 37 34 25 20 20 22 22 20 20 21 21 21 21 22 23 25 26 23 22 23 24 23 18 18 18 18 20
56 56 57 51 51 58 57 49 49 49 55 56 53 52 48 44 39 37 27 25 23 28 25 21 24 25 24 24 20 19 24 25 23 19 23 19 22 23 20 20 15 14 13
Wind_Direction_850mb
211 208 210 240 260 290 298 302 298 318 327 321 301 328 325 288 266 265 270 256 274 276 264 256 263 253 257 264 263 261 258 252 248 245 241 234 228 225 229 230 236 236 237
151 177 211 241 258 261 289 293 293 294 313 311 313 321 311 317 293 268 289 275 263 267 266 251 258 255 249 253 263 260 261 256 250 246 246 242 238 233 227 232 236 238 237
258 263 240 224 240 252 291 285 299 288 320 323 334 328 327 330 291 313 293 325 267 279 254 246 265 263 257 244 247 260 261 258 251 245 243 245 243 240 237 236 239 240 241
261 265 289 246 237 244 258 290 297 286 308 324 319 311 319 319 288 307 299 256 298 278 261 246 260 264 262 255 241 244 261 258 255 246 243 244 244 244 243 240 243 245 245
258 264 283 280 249 230 242 281 292 290 296 309 316 314 323 312 295 297 295 253 289 307 224 229 244 252 246 246 243 240 249 256 257 249 244 244 243 243 244 244 245 245 247
253 263 269 288 239 227 240 253 273 287 295 304 312 311 307 311 317 295 287 239 275 245 326 248 242 247 247 235 237 237 241 252 253 256 244 242 242 242 241 242 247 248 248
242 254 263 276 259 242 247 251 267 283 281 293 304 315 306 312 324 331 320 284 279 260 248 233 224 234 237 238 238 242 241 245 245 250 252 246 243 241 239 238 242 246 246
245 246 259 279 277 266 248 250 265 275 264 287 292 304 308 311 323 336 316 302 293 290 280 272 248 243 253 256 248 252 242 243 242 242 244 248 243 240 235 236 240 244 243
239 250 261 273 279 275 264 256 258 267 272 276 282 279 286 276 311 320 318 346 282 285 287 279 268 257 261 265 250 246 232 233 240 243 239 242 246 239 237 234 234 239 237
240 252 264 271 274 272 273 274 262 260 265 270 274 263 263 274 290 302 300 307 307 311 299 262 266 258 253 254 253 250 242 236 243 243 243 244 244 240 234 234 234 232 236
246 253 263 270 273 273 273 275 272 262 262 266 263 261 261 259 276 268 289 289 292 301 281 277 271 279 266 261 257 250 241 239 242 238 245 240 242 243 233 230 233 231 230
252 253 260 267 271 274 271 271 271 270 263 262 262 260 255 258 269 266 276 283 293 300 282 271 286 274 267 266 259 255 247 239 242 237 237 235 239 239 235 227 227 227 227
252 258 265 269 270 276 284 285 279 269 266 263 260 260 261 263 265 267 271 272 275 281 287 281 281 278 271 265 252 256 254 259 244 236 234 231 234 232 234 229 225 225 226
257 263 268 271 273 275 278 279 280 275 266 263 262 261 261 259 256 263 265 264 272 276 276 279 282 282 279 269 260 260 261 261 247 238 232 229 230 231 228 228 225 224 226
267 273 276 276 280 275 278 281 278 278 268 261 261 261 260 258 254 259 260 261 264 272 275 279 281 281 278 275 270 263 265 263 249 239 237 235 223 229 230 228 225 222 221
272 274 281 272 280 270 273 276 279 276 270 261 259 260 260 260 261 256 258 258 263 271 275 280 283 284 276 271 265 267 257 246 246 239 237 228 223 229 227 227 227 225 225
284 277 279 283 286 278 274 276 273 274 270 263 258 259 258 259 263 263 260 262 270 273 277 286 286 284 274 268 261 257 251 249 252 241 233 228 221 223 222 223 223 228 227
281 281 284 286 283 283 284 280 272 268 271 263 259 255 258 258 261 261 260 266 270 280 291 293 292 286 279 267 259 254 250 235 252 248 233 237 218 222 221 225 232 228 230
281 284 285 285 286 286 278 277 276 273 269 267 263 252 256 256 261 256 262 269 278 287 287 281 284 286 278 263 247 238 235 227 231 220 206 216 223 226 226 228 238 232 230
278 277 277 277 278 280 282 279 274 270 268 265 258 252 253 257 258 258 266 272 279 287 283 281 299 283 271 290 235 218 222 223 230 216 213 225 223 223 222 224 228 232 223
277 278 279 278 278 272 274 277 275 271 266 261 256 252 253 253 254 255 263 274 276 283 276 276 260 259 244 172 180 204 213 198 187 204 202 192 195 187 189 200 204 207 213
280 281 280 280 279 278 271 264 269 271 266 259 255 254 251 251 254 256 264 261 266 274 279 266 244 198 196 196 190 191 190 179 169 180 183 185 198 200 209 206 212 212 212
287 283 278 276 271 273 275 270 265 267 262 257 251 252 246 242 243 253 245 246 254 245 209 198 220 220 208 194 196 183 186 191 178 181 181 175 183 195 204 215 218 228 240
300 296 290 278 273 268 269 271 263 266 265 254 248 245 242 234 229 231 232 239 239 222 222 221 220 208 208 210 197 192 177 185 185 178 186 186 197 206 203 213 231 247 253
306 305 301 292 271 277 263 271 265 263 258 253 248 238 231 228 217 218 215 211 191 198 207 202 194 191 197 195 198 199 194 189 180 176 176 168 155 147 161 172 189 213 226
311 306 305 294 284 283 268 272 265 262 256 252 244 237 231 221 215 212 211 195 184 190 186 168 177 183 188 188 187 189 189 184 181 167 176 167 161 161 153 164 189 216 235